Regional Weather Roundup
Issued by NWS

Home | Current Version | Previous Version | Graphics & Text | Print | Product List | Glossary On
Versions: 1 2 3 4 5 6 7 8 9 10 11 12 13 14 15 16 17 18 19 20 21 22 23 24 25 26 27 28 29 30 31 32 33 34 35 36 37 38 39 40 41 42 43 44 45 46 47 48 49 50
000
ASUS43 KDMX 260507
RWRIA

WEATHER ROUNDUP FOR IOWA
NATIONAL WEATHER SERVICE DES MOINES IA
1100 PM CST TUE NOV 25 2014

NOTE: "FAIR" INDICATES FEW OR NO CLOUDS BELOW 12,000 FEET WITH NO
SIGNIFICANT WEATHER AND/OR OBSTRUCTIONS TO VISIBILITY.

* - THESE STATIONS ARE NOT NWS STATIONS...THUS NOT UNDER NWS
QUALITY CONTROL.  THEY ALSO DO NOT REPORT WEATHER SUCH
AS PRECIPITATION OR FOG.

IAZ001>003-012>014-020>022-031>034-043>046-260600-
   NORTHWEST IOWA

CITY           SKY/WX    TMP DP  RH WIND       PRES   REMARKS
CARROLL *      CLOUDY    34  21  60 S13       29.92S WCI  25
CHEROKEE *     LGT SNOW  30  30 100 SE9       29.87F WCI  22
DENISON *      LGT SNOW  32  30  93 S10G17    29.87F WCI  24
LE MARS *      LGT SNOW  32  32 100 SE7       29.84F WCI  26
ORANGE CITY *  LGT SNOW  32  28  86 SE6       29.83F WCI  26
SHELDON *      LGT SNOW  30  28  93 SE16      29.83F WCI  19
SIOUX CITY     LGT RAIN  35  33  92 SE10      29.84F WCI  27
SPENCER        CLOUDY    32  19  58 SE15      29.89F WCI  22
STORM LAKE *   LGT SNOW  28  27  93 SE13      29.88F WCI  18
$$

IAZ055>058-069>071-079>083-090>094-260600-
   SOUTHWEST IOWA

CITY           SKY/WX    TMP DP  RH WIND       PRES   REMARKS
ATLANTIC *     CLOUDY    36  21  55 S10       29.91F WCI  28
AUDUBON *      FLURRIES  34  19  55 S8        29.92F WCI  27
CLARINDA *     MOCLDY    37  21  52 S10       29.95F WCI  30
COUNCIL BLFS * CLOUDY    36  25  64 SE14      29.85F WCI  27
CRESTON *      CLOUDY    32  18  55 S14       29.95F WCI  22
HARLAN  *      MIX PCPN  36  27  69 S12G20    29.92F WCI  27
LAMONI         CLOUDY    31  16  54 SE13      29.99F WCI  21
RED OAK *      CLOUDY    37  21  52 SE10G18   29.91F WCI  30
SHENANDOAH *   CLOUDY    37  23  56 SE13      29.91F WCI  29
$$

IAZ047>049-059>061-072>074-084-260600-
   CENTRAL IOWA

CITY           SKY/WX    TMP DP  RH WIND       PRES   REMARKS
AMES           CLOUDY    28  16  60 SE9       30.00F WCI  19
ANKENY *       CLOUDY    30  16  55 SE9       30.00F WCI  22
CHARITON *     CLOUDY    28  18  64 S13       30.01F WCI  18
DES MOINES     CLOUDY    31  15  52 SE9       30.00F WCI  23
GRINNELL*      MOCLDY    27  21  80 SE9       30.05S WCI  17
KNOXVILLE *    CLOUDY    27  16  63 SE9       30.02F WCI  17
MARSHALLTOWN   MOCLDY    25  19  78 SE12      30.03S WCI  14
PELLA *        MOCLDY    28  19  68 SE8       30.06S WCI  20
PERRY *        CLOUDY    32  21  64 SE12      29.96F WCI  23
$$

IAZ004>006-015-016-023>025-035-036-260600-
   NORTH CENTRAL IOWA

CITY           SKY/WX    TMP DP  RH WIND       PRES   REMARKS
ALGONA *       CLOUDY    28  18  64 SE16G23   29.94F WCI  17
CLARION *      CLOUDY    27  18  69 SE18      29.97F WCI  13
ESTHERVILLE    CLOUDY    27  16  63 SE15      29.91F WCI  15
FORT DODGE *   CLOUDY    30  16  55 SE9       29.96S WCI  22
MASON CITY     CLOUDY    21  16  81 SE14      30.01F WCI   8
FOREST CITY *  CLOUDY    27  19  74 SE12      29.98F WCI  16
IOWA FALLS *   CLOUDY    25  18  74 SE8       30.02S WCI  16
$$

IAZ007>011-017>019-026>030-037>042-050>054-066-260600-
   NORTHEAST IOWA

CITY           SKY/WX    TMP DP  RH WIND       PRES   REMARKS
CEDAR RAPIDS   CLEAR     18  16  92 SE7       30.09F WCI   9
CHARLES CITY * MOCLDY    21  16  79 SE13      30.04F WCI   9
CLINTON *      CLEAR     10   9  92 SE7       30.17F WCI   0
DECORAH *      PTCLDY    18  12  79 SE7       30.06S WCI   8
DUBUQUE        CLEAR     15  13  91 S7        30.11F WCI   5
MONTICELLO *   CLEAR     18  16  93 SE7       30.12S WCI   8
OELWEIN *      MOCLDY    21  18  86 SE12      30.08S WCI   9
WATERLOO       MOCLDY    22  18  85 SE10      30.06F WCI  11
$$

IAZ064-065-067-068-078-260600-
   EAST CENTRAL IOWA

CITY           SKY/WX    TMP DP  RH WIND       PRES   REMARKS
DAVENPORT      CLEAR     16  13  88 SE8       30.14F WCI   5
IOWA CITY      CLEAR     18  16  92 SE6       30.13F WCI  10
MT. PLEASANT * CLEAR     21  19  93 SE8       30.12F WCI  12
MUSCATINE *    CLEAR     14  12  92 CALM      30.16S
QUAD CITIES      N/A     11   7  84 E8        30.15F WCI  -1
$$

IAZ062-063-075>077-085>089-095>099-260600-
   SOUTHEAST IOWA

CITY           SKY/WX    TMP DP  RH WIND       PRES   REMARKS
BURLINGTON     CLEAR     23  20  88 SE6       30.13F WCI  16
FAIRFIELD *    MOCLDY    23  19  86 SE7       30.10F WCI  15
FORT MADISON * CLEAR     28  23  80 SE6       30.13F WCI  22
KEOKUK *       CLEAR     25  21  86 SE7       30.12F WCI  17
OSKALOOSA *      N/A     25  21  86 SE10      30.07F WCI  15
CENTERVILLE *    N/A     27  18  69 SE7       30.06F WCI  19
OTTUMWA        PTCLDY    23  18  81 SE7       30.07F WCI  15
WASHINGTON *   CLEAR     19  19 100 SE7       30.11F WCI  10
$$

ABBREVIATIONS USED IN REMARKS
   TC - TEMPERATURES IN CELSIUS
  WCI - WIND CHILL INDEX
   HX - HEAT INDEX
  VSB - VISIBILITY
$$



USA.gov is the U.S. government's official web portal to all federal, state and local government web resources and services.